Content
SEND FEEDBACK

Daily
Averages
Monthly
Summary
United States of America

ASATDAS, GUAM


Home > North America > United States > Guam
Elevation: 612 feet     Latitude: 13 35N     Longitude: 144 56E

WEATHER
 
SELECT A DAY
Number of Records: 209,106;   Date Range: 1/1/95 - 8/12/14
 
SHARE

PRINT THIS DATA

[ ← Previous Day ]
WEATHER ALMANAC - JANUARY 7, 2014
[ Next Day → ]
[ °C ]   °F
Weather ElementAverageHighLow
Temperature81.6 °F87.8 °F (1:04 pm)77 °F (4:54 am)
Dewpoint71.8 °F73.4 °F (12:41 pm)69.8 °F (3:37 pm)
Humidity72.7 %84 % (5:54 am)58 % (1:04 pm)
Barometer29.83 in29.89 in (8:54 am)29.78 in (2:54 pm)
Wind Speed12.3 mph19.6 mph (12:54 pm)
Wind Gust27.6 mph (1:04 pm)
Weather ElementAverage
Visibility10 mi
Wind DirectionENE (58.9 °)

Weather ElementTotal
Precipitation---
Cooling Degree Days17.4 (Base 65)
Growing Degree Days32.4 (Base 50)
Averaged from 28 records on January 7, 2014
WEATHER CONDITIONS BREAKOUT
WIND DIRECTION BREAKOUT
WEATHER BY HOUR - JANUARY 7, 2014
[ °C ]   °F
Local TimeTemperatureDewpointHumidityBarometerVisibilityWind DirectionWind SpeedGust SpeedPrecipitationEventsConditions
1:54 AM79.0 °F72.0 °F79 %29.84 in10.0 miENE (70°)8.1 mphClear
2:54 AM79.0 °F71.1 °F77 %29.83 in10.0 miENE (70°)9.2 mphClear
3:54 AM78.1 °F71.1 °F79 %29.82 in10.0 miENE (70°)6.9 mphClear
4:54 AM77.0 °F71.1 °F82 %29.83 in10.0 miENE (70°)8.1 mphClear
5:54 AM77.0 °F72.0 °F84 %29.84 in10.0 miENE (70°)8.1 mphClear
6:54 AM77.0 °F72.0 °F84 %29.86 in10.0 miENE (60°)6.9 mphClear
7:54 AM79.0 °F73.0 °F82 %29.88 in10.0 miNE (50°)5.8 mphClear
8:54 AM82.0 °F73.0 °F74 %29.89 in10.0 miNE (50°)10.4 mphPartly Cloudy
9:54 AM84.9 °F73.0 °F67 %29.88 in10.0 miENE (60°)15.0 mphScattered Clouds
10:54 AM84.9 °F72.0 °F65 %29.86 in10.0 miNE (40°)15.0 mphMostly Cloudy
11:54 AM84.0 °F72.0 °F67 %29.83 in10.0 miNE (50°)13.8 mph20.7 mphMostly Cloudy
12:09 PM84.2 °F71.6 °F66 %29.85 in10.0 miENE (60°)12.7 mph24.2 mphMostly Cloudy
12:41 PM82.4 °F73.4 °F74 %29.83 in10.0 miNE (40°)13.8 mphMostly Cloudy
12:54 PM87.1 °F72.0 °F61 %29.81 in10.0 miENE (60°)19.6 mph25.3 mphMostly Cloudy
1:04 PM87.8 °F71.6 °F58 %29.82 in10.0 miENE (70°)19.6 mph27.6 mphScattered Clouds
1:54 PM86.0 °F72.0 °F63 %29.79 in10.0 miNE (40°)18.4 mphScattered Clouds
2:54 PM84.9 °F70.0 °F61 %29.78 in10.0 miENE (70°)19.6 mph24.2 mphScattered Clouds
3:25 PM84.2 °F71.6 °F66 %29.81 in10.0 miNE (50°)18.4 mphMostly Cloudy
3:37 PM84.2 °F69.8 °F62 %29.81 in10.0 miENE (70°)16.1 mphScattered Clouds
3:54 PM84.9 °F70.0 °F61 %29.78 in10.0 miENE (60°)18.4 mphClear
4:54 PM82.9 °F73.0 °F72 %29.80 in10.0 miEast (80°)13.8 mph0.00 inRainLight Rain
5:54 PM81.0 °F72.0 °F74 %29.81 in10.0 miENE (60°)13.8 mph0.00 inPartly Cloudy
6:54 PM79.0 °F72.0 °F79 %29.83 in10.0 miNE (50°)9.2 mphScattered Clouds
7:54 PM80.1 °F72.0 °F76 %29.84 in10.0 miENE (70°)10.4 mphClear
8:54 PM79.0 °F72.0 °F79 %29.84 in10.0 miENE (60°)9.2 mphClear
9:54 PM78.1 °F72.0 °F81 %29.85 in10.0 miNE (50°)9.2 mphClear
10:54 PM78.1 °F72.0 °F81 %29.85 in10.0 miNE (50°)6.9 mphClear
11:54 PM78.1 °F72.0 °F81 %29.84 in10.0 miNE (50°)8.1 mphClear
Hourly data recorded from PGUM, located miles away from Asatdas, Guam







STORIES FROM OUR PARTNERS